This demonstration page uses our WeatherBlox Daily Observations layout. Learn more.

Left ArrowRight Arrow

36.19886, -115.1175

Hourly Observations for May 25, 2020

Temp ( °F °C ) Dew Point ( °F °C ) Humidity (%) Winds ( mph kmh ) Pressure ( in mb ) Visibility ( mi km ) Precip ( " mm )
12:53 am 00:53 Clear 76 24.4 22 -5.6 13 13 NE 14 22 29.92 1013 10 16 N/A
1:53 am 01:53 Clear 75 23.9 22 -5.6 14 14 ENE 9 15 29.93 1014 10 16 N/A
2:53 am 02:53 Clear 73 22.8 23 -5 15 15 S 6 9 29.94 1014 10 16 N/A
3:53 am 03:53 Clear 70 21.1 25 -3.9 18 18 W 7 11 29.96 1015 10 16 N/A
4:53 am 04:53 Clear 71 21.7 24 -4.4 17 17 WSW 3 6 29.98 1015 10 16 N/A
5:53 am 05:53 Sunny 69 20.6 25 -3.9 19 19 W 5 7 29.99 1016 10 16 N/A
6:53 am 06:53 Sunny 72 22.2 24 -4.4 17 17 NNW 9 15 30.00 1016 10 16 N/A
7:53 am 07:53 Sunny 75 23.9 24 -4.4 15 15 WNW 6 9 30.01 1016 10 16 N/A
8:53 am 08:53 Sunny 80 26.7 25 -3.9 13 13 ENE 9 15 30.01 1016 10 16 N/A
9:53 am 09:53 Sunny 81 27.2 26 -3.3 13 13 ENE 10 17 30.01 1016 10 16 N/A
10:53 am 10:53 Sunny 83 28.3 26 -3.3 12 12 E 13 20 30.00 1016 10 16 N/A
11:53 am 11:53 Sunny 86 30 26 -3.3 11 11 N 8 13 29.98 1015 10 16 N/A
12:53 pm 12:53 Sunny 86 30 26 -3.3 11 11 VRB 6 9 29.96 1015 10 16 N/A
1:53 pm 13:53 Sunny 89 31.7 27 -2.8 11 11 ESE 12 19 29.93 1014 10 16 N/A
2:53 pm 14:53 Sunny 90 32.2 27 -2.8 10 10 NE 6 9 29.91 1013 10 16 N/A
3:53 pm 15:53 Sunny 90 32.2 27 -2.8 10 10 SSE 8 13 29.88 1012 10 16 N/A
4:53 pm 16:53 Sunny 90 32.2 27 -2.8 10 10 E 5 7 29.87 1012 10 16 N/A
5:53 pm 17:53 Sunny 90 32.2 26 -3.3 10 10 E 9 15 29.86 1011 10 16 N/A
6:53 pm 18:53 Sunny 89 31.7 26 -3.3 10 10 N N/A 29.85 1011 10 16 N/A
7:53 pm 19:53 Clear 88 31.1 26 -3.3 10 10 N N/A 29.86 1011 10 16 N/A
8:53 pm 20:53 Clear 86 30 28 -2.2 12 12 S 3 6 29.86 1011 10 16 N/A
9:53 pm 21:53 Clear 83 28.3 31 -0.6 15 15 W 5 7 29.88 1012 10 16 N/A
10:53 pm 22:53 Clear 80 26.7 31 -0.6 17 17 WNW 7 11 29.88 1012 10 16 N/A
11:53 pm 23:53 Clear 79 26.1 32 undefined 18 18 NNW 3 6 29.88 1012 10 16 N/A

Powered by AerisWeather